C/2020 K1 ( PanSTARRS )

Japanese version
Home page
Updated on April 4, 2021

---------------------------------------------------------------------

* Profile

Discovery Date May 17, 2020
Magnitude 20.6 mag
Discoverer Pan-STARRS2 1.8-m Ritchey-Chretien reflector at Haleakala

* Pictures

* Orbital Elements

Epoch 2023 May 16.0 TT = JDT 2460080.5
T 2023 May  9.08786 TT                                  Rudenko
q   3.0733150            (2000.0)            P               Q
z  +0.0000051      Peri.  213.98468     +0.06618355     -0.03770299
 +/-0.0000056      Node    94.35601     -0.53600042     +0.84152305
e   0.9999844      Incl.   89.67063     -0.84161945     -0.53890393
From 197 observations 2020 Apr. 17-2021 Mar. 25, mean residual 0".5.

* Finding Charts

* Magnitudes Graph

        m1 = 5.0 + 5 log d + 10.0 log r

---------------------------------------------------------------------

The orbital elements are published on M.P.E.C. 2021-F115.
The charts are made with StellaNavigator Ver.10 (AstroArts).
The magnitudes graphs are made with Comet for Windows.

---------------------------------------------------------------------

Copyright(C) Seiichi Yoshida (comet@aerith.net). All rights reserved.